When you browse on this site, cookies collect data to enhance your experience and personalize the content and advertising you see.
Visit our Privacy Policy to learn more. By continuing to use the site, you agree to this use of cookies and data.
  • In Deutschland
  • Länderverzeichnis
  • Für 7 Tage
  • Wassertemperatur
  • Wetterkarte
  • Widgets
  • user-avatar
    Anmelden

    Stündliche Wetter Mazyr

    Heute, 30 Mai, Samstag

    Zeit Temperatur Niederschläge Wind Luftdruck Luftfeuchtigkeit
    00:00 +12°C° 0.1 mm 5 m/S 742 mmHg 95%
    01:00 +13°C° 0.1 mm 5 m/S 742 mmHg 95%
    02:00 +13°C° 0.1 mm 5 m/S 741 mmHg 95%
    03:00 +13°C° 1.9 mm 5 m/S 741 mmHg 96%
    04:00 +13°C° 1.9 mm 5 m/S 740 mmHg 97%
    05:00 +13°C° 1.9 mm 5 m/S 739 mmHg 98%
    06:00 +13°C° 2.4 mm 5 m/S 739 mmHg 97%
    07:00 +13°C° 2.4 mm 5 m/S 739 mmHg 97%
    08:00 +14°C° 2.4 mm 4 m/S 739 mmHg 96%
    09:00 +14°C° 0.5 mm 5 m/S 738 mmHg 96%
    10:00 +14°C° 0.5 mm 5 m/S 738 mmHg 96%
    11:00 +14°C° 0.5 mm 5 m/S 737 mmHg 96%
    12:00 +14°C° 2.6 mm 5 m/S 737 mmHg 96%
    13:00 +14°C° 2.6 mm 6 m/S 736 mmHg 96%
    14:00 +14°C° 2.6 mm 6 m/S 735 mmHg 96%
    15:00 +15°C° 6.8 mm 6 m/S 735 mmHg 97%
    16:00 +15°C° 6.8 mm 6 m/S 734 mmHg 97%
    17:00 +15°C° 6.8 mm 6 m/S 733 mmHg 97%
    18:00 +15°C° 2.8 mm 7 m/S 733 mmHg 96%
    19:00 +15°C° 2.8 mm 7 m/S 733 mmHg 96%
    20:00 +15°C° 2.8 mm 8 m/S 733 mmHg 95%
    21:00 +14°C° 0 mm 7 m/S 733 mmHg 95%
    22:00 +14°C° 0 mm 6 m/S 733 mmHg 95%
    23:00 +14°C° 0 mm 5 m/S 734 mmHg 95%

    Morgen, 31 Mai, Sonntag

    Zeit Temperatur Niederschläge Wind Luftdruck Luftfeuchtigkeit
    00:00 +13°C° 0 mm 5 m/S 734 mmHg 96%
    01:00 +13°C° 0 mm 4 m/S 735 mmHg 96%
    02:00 +13°C° 0 mm 4 m/S 735 mmHg 97%
    03:00 +13°C° 0 mm 4 m/S 736 mmHg 97%
    04:00 +12°C° 0 mm 4 m/S 736 mmHg 96%
    05:00 +12°C° 0 mm 4 m/S 736 mmHg 96%
    06:00 +13°C° 0 mm 4 m/S 737 mmHg 94%
    07:00 +13°C° 0 mm 4 m/S 737 mmHg 92%
    08:00 +14°C° 0 mm 4 m/S 738 mmHg 90%
    09:00 +14°C° 0.2 mm 4 m/S 738 mmHg 89%
    10:00 +14°C° 0.2 mm 4 m/S 739 mmHg 88%
    11:00 +14°C° 0.2 mm 4 m/S 739 mmHg 87%
    12:00 +16°C° 0.3 mm 3 m/S 739 mmHg 85%
    13:00 +16°C° 0.3 mm 3 m/S 740 mmHg 83%
    14:00 +17°C° 0.3 mm 3 m/S 740 mmHg 80%
    15:00 +15°C° 0.6 mm 4 m/S 740 mmHg 83%
    16:00 +14°C° 0.6 mm 5 m/S 741 mmHg 85%
    17:00 +13°C° 0.6 mm 6 m/S 741 mmHg 87%
    18:00 +11°C° 0.4 mm 6 m/S 741 mmHg 89%
    19:00 +10°C° 0.4 mm 7 m/S 741 mmHg 90%
    20:00 +9°C° 0.4 mm 7 m/S 742 mmHg 92%
    21:00 +9°C° 0.2 mm 7 m/S 742 mmHg 92%
    22:00 +9°C° 0.2 mm 7 m/S 742 mmHg 91%
    23:00 +9°C° 0.2 mm 7 m/S 742 mmHg 90%

    übermorgen, 1 Juni, Montag

    Zeit Temperatur Niederschläge Wind Luftdruck Luftfeuchtigkeit
    00:00 +9°C° 0.2 mm 7 m/S 742 mmHg 90%
    01:00 +9°C° 0.2 mm 6 m/S 743 mmHg 90%
    02:00 +9°C° 0.2 mm 6 m/S 743 mmHg 90%
    03:00 +8°C° 0.1 mm 7 m/S 743 mmHg 89%
    04:00 +8°C° 0.1 mm 7 m/S 743 mmHg 89%
    05:00 +6°C° 0.1 mm 7 m/S 743 mmHg 88%
    06:00 +8°C° 0 mm 7 m/S 744 mmHg 85%
    07:00 +8°C° 0 mm 7 m/S 744 mmHg 82%
    08:00 +8°C° 0 mm 7 m/S 744 mmHg 79%
    09:00 +9°C° 0 mm 7 m/S 744 mmHg 77%
    10:00 +9°C° 0 mm 7 m/S 745 mmHg 75%
    11:00 +10°C° 0 mm 7 m/S 745 mmHg 73%
    12:00 +9°C° 0.3 mm 7 m/S 745 mmHg 78%
    13:00 +8°C° 0.3 mm 6 m/S 745 mmHg 83%
    14:00 +8°C° 0.3 mm 5 m/S 745 mmHg 88%
    15:00 +8°C° 0.3 mm 5 m/S 745 mmHg 86%
    16:00 +9°C° 0.3 mm 5 m/S 744 mmHg 85%
    17:00 +10°C° 0.3 mm 5 m/S 744 mmHg 83%
    18:00 +9°C° 0.4 mm 5 m/S 744 mmHg 85%
    19:00 +9°C° 0.4 mm 5 m/S 744 mmHg 88%
    20:00 +8°C° 0.4 mm 5 m/S 744 mmHg 90%
    21:00 +8°C° 0.3 mm 5 m/S 743 mmHg 91%
    22:00 +7°C° 0.3 mm 5 m/S 743 mmHg 92%
    23:00 +7°C° 0.3 mm 5 m/S 742 mmHg 93%

    2 Juni, Dienstag

    Zeit Temperatur Niederschläge Wind Luftdruck Luftfeuchtigkeit
    00:00 +7°C° 1.4 mm 6 m/S 742 mmHg 94%
    01:00 +7°C° 1.4 mm 6 m/S 741 mmHg 95%
    02:00 +6°C° 1.4 mm 7 m/S 740 mmHg 96%
    03:00 +6°C° 2.2 mm 7 m/S 740 mmHg 96%
    04:00 +6°C° 2.2 mm 7 m/S 740 mmHg 96%
    05:00 +8°C° 2.2 mm 7 m/S 739 mmHg 95%
    06:00 +8°C° 1.2 mm 7 m/S 739 mmHg 96%
    07:00 +8°C° 1.2 mm 7 m/S 739 mmHg 96%
    08:00 +9°C° 1.2 mm 7 m/S 739 mmHg 96%
    09:00 +10°C° 0.4 mm 7 m/S 739 mmHg 94%
    10:00 +11°C° 0.4 mm 7 m/S 739 mmHg 92%
    11:00 +12°C° 0.4 mm 8 m/S 740 mmHg 90%
    12:00 +11°C° 0.6 mm 7 m/S 740 mmHg 91%
    13:00 +11°C° 0.6 mm 7 m/S 740 mmHg 91%
    14:00 +11°C° 0.6 mm 6 m/S 740 mmHg 91%
    15:00 +11°C° 0.8 mm 7 m/S 740 mmHg 91%
    16:00 +10°C° 0.8 mm 7 m/S 740 mmHg 92%
    17:00 +10°C° 0.8 mm 7 m/S 740 mmHg 92%
    18:00 +10°C° 1.9 mm 7 m/S 740 mmHg 93%
    19:00 +10°C° 1.9 mm 6 m/S 740 mmHg 94%
    20:00 +10°C° 1.9 mm 6 m/S 740 mmHg 95%
    21:00 +9°C° 1.3 mm 5 m/S 740 mmHg 96%
    22:00 +9°C° 1.3 mm 5 m/S 740 mmHg 96%
    23:00 +10°C° 1.3 mm 4 m/S 740 mmHg 97%

    3 Juni, Mittwoch

    Zeit Temperatur Niederschläge Wind Luftdruck Luftfeuchtigkeit
    00:00 +9°C° 0.3 mm 3 m/S 740 mmHg 97%
    01:00 +9°C° 0.3 mm 3 m/S 740 mmHg 97%
    02:00 +9°C° 0.3 mm 2 m/S 740 mmHg 97%
    03:00 +9°C° 0 mm 2 m/S 740 mmHg 97%
    04:00 +8°C° 0 mm 3 m/S 740 mmHg 96%
    05:00 +8°C° 0 mm 3 m/S 740 mmHg 96%
    06:00 +9°C° 0 mm 3 m/S 740 mmHg 92%
    07:00 +10°C° 0 mm 3 m/S 741 mmHg 89%
    08:00 +10°C° 0 mm 3 m/S 741 mmHg 86%
    09:00 +12°C° 0 mm 3 m/S 741 mmHg 79%
    10:00 +13°C° 0 mm 4 m/S 741 mmHg 72%
    11:00 +15°C° 0 mm 4 m/S 742 mmHg 65%
    12:00 +17°C° 0 mm 3 m/S 742 mmHg 62%
    13:00 +18°C° 0 mm 3 m/S 742 mmHg 59%
    14:00 +19°C° 0 mm 3 m/S 742 mmHg 56%
    15:00 +19°C° 0.1 mm 3 m/S 742 mmHg 57%
    16:00 +19°C° 0.1 mm 2 m/S 742 mmHg 58%
    17:00 +19°C° 0.1 mm 2 m/S 742 mmHg 59%
    18:00 +17°C° 0.2 mm 2 m/S 742 mmHg 69%
    19:00 +15°C° 0.2 mm 2 m/S 742 mmHg 78%
    20:00 +12°C° 0.2 mm 3 m/S 742 mmHg 87%
    21:00 +12°C° 0.1 mm 3 m/S 742 mmHg 89%
    22:00 +12°C° 0.1 mm 3 m/S 742 mmHg 90%
    23:00 +11°C° 0.1 mm 3 m/S 742 mmHg 92%

    4 Juni, Donnerstag

    Zeit Temperatur Niederschläge Wind Luftdruck Luftfeuchtigkeit
    00:00 +11°C° 0.2 mm 3 m/S 742 mmHg 94%
    01:00 +12°C° 0.2 mm 2 m/S 742 mmHg 95%
    02:00 +12°C° 0.2 mm 2 m/S 742 mmHg 96%
    03:00 +12°C° 0.1 mm 2 m/S 742 mmHg 97%
    04:00 +10°C° 0.1 mm 2 m/S 742 mmHg 97%
    05:00 +10°C° 0.1 mm 2 m/S 742 mmHg 98%
    06:00 +12°C° 0.1 mm 2 m/S 742 mmHg 96%
    07:00 +12°C° 0.1 mm 2 m/S 742 mmHg 95%
    08:00 +13°C° 0.1 mm 2 m/S 742 mmHg 94%
    09:00 +14°C° 0.4 mm 2 m/S 741 mmHg 92%
    10:00 +14°C° 0.4 mm 3 m/S 741 mmHg 90%
    11:00 +14°C° 0.4 mm 3 m/S 741 mmHg 89%
    12:00 +16°C° 1.1 mm 3 m/S 741 mmHg 86%
    13:00 +17°C° 1.1 mm 3 m/S 740 mmHg 83%
    14:00 +18°C° 1.1 mm 3 m/S 740 mmHg 80%
    15:00 +18°C° 1.1 mm 3 m/S 740 mmHg 79%
    16:00 +18°C° 1.1 mm 2 m/S 740 mmHg 79%
    17:00 +18°C° 1.1 mm 2 m/S 739 mmHg 78%
    18:00 +17°C° 0.3 mm 2 m/S 739 mmHg 82%
    19:00 +16°C° 0.3 mm 2 m/S 739 mmHg 85%
    20:00 +14°C° 0.3 mm 1 m/S 739 mmHg 89%
    21:00 +13°C° 0 mm 1 m/S 739 mmHg 90%
    22:00 +13°C° 0 mm 1 m/S 740 mmHg 91%
    23:00 +12°C° 0 mm 1 m/S 740 mmHg 92%
    Mehr zeigen